Sacramento, CA

4:48 AM PDT on August 24, 2016 (GMT -0700)
Sacramento International

Weather History for KSMF - November, 2012

Change the Weather History Date:

Thursday, November 22, 2012

  Actual Average Record
Temperature  
Mean Temperature 54 °F -  
Max Temperature 63 °F 58 °F 75 °F (1959)
Min Temperature 44 °F 42 °F 29 °F (1941)
Degree Days  
Heating Degree Days 12    
Growing Degree Days 4 (Base 50)    
Moisture  
Dew Point 45 °F    
Average Humidity 79    
Maximum Humidity 96    
Minimum Humidity 54    
Precipitation  
Precipitation 0.00 in - - ()
Sea Level Pressure  
Sea Level Pressure 30.21 in    
Wind  
Wind Speed 6 mph (NNW)    
Max Wind Speed 12 mph    
Max Gust Speed -    
Visibility 10 miles    
Events Fog    
Averages and records for this station are not official NWS values.
T = Trace of Precipitation, MM = Missing Value Source: NWS Daily Summary

Daily Weather History Graph

Daily Weather History Graph

Search for Another Location

Airport or City:

Trip Planner

Search our weather history database for the weather conditions in past years. The results will help you decide how hot, cold, wet, or windy it might be!

Date:

Astronomy

Nov. 22, 2012 Rise Set
Actual Time 6:56 AM PST 4:48 PM PST
Civil Twilight 6:27 AM PST 5:17 PM PST
Nautical Twilight 5:55 AM PST 5:49 PM PST
Astronomical Twilight 5:23 AM PST 6:21 PM PST
Moon 1:33 PM PST (11/22) 1:25 AM PST (11/22)
Length of Visible Light 10h 49m
Length of Day
9h 51m
Waxing Gibbous, 72% of the Moon is Illuminated
Nov 22
Waxing Gibbous
Nov 28
Full
Dec 6
Last Quarter
Dec 13
New
Dec 19
First Quarter

Hourly Weather History & Observations

Time (PST) Temp. Windchill Dew Point Humidity Pressure Visibility Wind Dir Wind Speed Gust Speed Precip Events Conditions
12:53 AM 51.1 °F - 50.0 °F 96% 30.19 in 8.0 mi WNW 3.5 mph - N/A   Scattered Clouds
1:53 AM 50.0 °F - 48.0 °F 93% 30.19 in 8.0 mi NW 9.2 mph - N/A   Scattered Clouds
2:53 AM 48.0 °F - 44.1 °F 86% 30.20 in 9.0 mi NW 6.9 mph - N/A   Clear
3:53 AM 46.9 °F - 43.0 °F 86% 30.19 in 10.0 mi NW 9.2 mph - N/A   Clear
4:53 AM 46.9 °F - 42.1 °F 83% 30.19 in 10.0 mi NNW 9.2 mph - N/A   Clear
5:53 AM 45.0 °F 40.6 °F 42.1 °F 90% 30.19 in 10.0 mi NW 8.1 mph - N/A   Clear
6:53 AM 44.1 °F 39.0 °F 39.9 °F 85% 30.22 in 10.0 mi NW 9.2 mph - N/A   Clear
7:53 AM 46.9 °F - 42.1 °F 83% 30.23 in 10.0 mi NW 5.8 mph - N/A   Clear
8:53 AM 51.1 °F - 43.0 °F 74% 30.25 in 10.0 mi NNW 8.1 mph - N/A   Clear
9:53 AM 54.0 °F - 43.0 °F 66% 30.25 in 10.0 mi NNW 8.1 mph - N/A   Clear
10:53 AM 57.0 °F - 44.1 °F 62% 30.24 in 10.0 mi NNW 11.5 mph - N/A   Clear
11:53 AM 59.0 °F - 44.1 °F 58% 30.22 in 10.0 mi NNW 8.1 mph - N/A   Clear
12:53 PM 60.1 °F - 45.0 °F 57% 30.20 in 10.0 mi NNW 4.6 mph - N/A   Clear
1:53 PM 62.1 °F - 46.0 °F 56% 30.18 in 10.0 mi NW 3.5 mph - N/A   Clear
2:53 PM 63.0 °F - 46.0 °F 54% 30.18 in 10.0 mi NW 5.8 mph - N/A   Clear
3:53 PM 62.1 °F - 48.0 °F 60% 30.18 in 10.0 mi NNE 4.6 mph - N/A   Clear
4:53 PM 57.9 °F - 48.0 °F 70% 30.18 in 10.0 mi ENE 4.6 mph - N/A   Clear
5:53 PM 52.0 °F - 48.0 °F 86% 30.19 in 10.0 mi Calm Calm - N/A   Clear
6:53 PM 53.1 °F - 46.9 °F 80% 30.20 in 10.0 mi Calm Calm - N/A   Clear
7:53 PM 50.0 °F - 46.9 °F 89% 30.21 in 10.0 mi SSW 3.5 mph - N/A   Clear
8:53 PM 48.0 °F - 45.0 °F 89% 30.22 in 10.0 mi SW 3.5 mph - N/A   Clear
9:53 PM 45.0 °F - 43.0 °F 93% 30.22 in 10.0 mi Calm Calm - N/A   Clear
10:53 PM 44.1 °F 42.5 °F 43.0 °F 96% 30.23 in 10.0 mi East 3.5 mph - N/A   Clear
11:53 PM 44.1 °F 42.5 °F 43.0 °F 96% 30.24 in 10.0 mi NE 3.5 mph - N/A Fog Shallow Fog